Tracking 20621 objects as of 29-Mar-2020
HD Live streaming from Space Station
objects crossing your sky now

FAISAT

Track FAISAT now!
10-day predictions
FAISAT is classified as:


NORAD ID: 23465
Int'l Code: 1995-002C
Perigee: 972.5 km
Apogee: 1,027.3 km
Inclination: 82.9 °
Period: 105.0 minutes
Semi major axis: 7370 km
RCS: 0.6839 m2 (medium)
Launch date: January 24, 1995
Source: United States (US)
Launch site: PLESETSK MISSILE AND SPACE COMPLEX (PKMTR)
aabbcc
Your satellite tracking list
Your tracking list is empty




NASA's NSSDC Master Catalog

Two Line Element Set (TLE):
1 23465U 95002C   20089.71560451  .00000021  00000-0  65149-5 0  9997
2 23465  82.9239 260.0691 0037170 348.8166  21.8548 13.71893607260789
Source of the keplerian elements: AFSPC